TimeCST,TemperatureF,Dew PointF,Humidity,Sea Level PressureIn,VisibilityMPH,Wind Direction,Wind SpeedMPH,Gust SpeedMPH,PrecipitationIn,Events,Conditions,WindDirDegrees,DateUTC
12:04 AM,33.8,30.2,87,30.32,1.0,Calm,Calm,-,N/A,,Mist,0,2013-01-07 06:04:00
12:11 AM,33.8,30.2,87,30.33,0.5,Calm,Calm,-,N/A,Fog,Fog,0,2013-01-07 06:11:00
12:53 AM,33.1,30.9,92,30.32,0.8,Calm,Calm,-,N/A,,Mist,0,2013-01-07 06:53:00
1:05 AM,32.0,30.2,93,30.32,2.0,Calm,Calm,-,N/A,,Partly Cloudy,0,2013-01-07 07:05:00
1:13 AM,32.0,30.2,93,30.32,7.0,Calm,Calm,-,N/A,,Partly Cloudy,0,2013-01-07 07:13:00
1:30 AM,32.0,30.2,93,30.32,1.8,Calm,Calm,-,N/A,,Partly Cloudy,0,2013-01-07 07:30:00
1:41 AM,32.0,30.2,93,30.32,4.0,Calm,Calm,-,N/A,,Clear,0,2013-01-07 07:41:00
1:53 AM,32.0,30.0,92,30.32,5.0,Calm,Calm,-,N/A,,Clear,0,2013-01-07 07:53:00
1:56 AM,32.0,30.2,93,30.32,1.8,Calm,Calm,-,N/A,,Partly Cloudy,0,2013-01-07 07:56:00
2:00 AM,32.0,30.2,93,30.32,0.8,Calm,Calm,-,N/A,,Mist,0,2013-01-07 08:00:00
2:12 AM,30.2,30.2,100,30.32,1.2,Calm,Calm,-,N/A,,Partly Cloudy,0,2013-01-07 08:12:00
2:18 AM,30.2,28.4,93,30.32,3.0,Calm,Calm,-,N/A,,Partly Cloudy,0,2013-01-07 08:18:00
2:53 AM,32.0,30.0,92,30.32,4.0,Calm,Calm,-,N/A,,Clear,0,2013-01-07 08:53:00
3:03 AM,30.2,28.4,93,30.32,2.0,Calm,Calm,-,N/A,,Clear,0,2013-01-07 09:03:00
3:28 AM,30.2,28.4,93,30.32,4.0,Calm,Calm,-,N/A,,Clear,0,2013-01-07 09:28:00
3:32 AM,30.2,28.4,93,30.32,1.5,Calm,Calm,-,N/A,,Clear,0,2013-01-07 09:32:00
3:40 AM,30.2,28.4,93,30.31,0.5,Calm,Calm,-,N/A,Fog,Light Freezing Fog,0,2013-01-07 09:40:00
3:47 AM,30.2,28.4,93,30.31,1.2,Calm,Calm,-,N/A,,Partly Cloudy,0,2013-01-07 09:47:00
3:51 AM,30.2,28.4,93,30.31,3.0,Calm,Calm,-,N/A,,Partly Cloudy,0,2013-01-07 09:51:00
3:53 AM,30.9,28.9,92,30.31,3.0,Calm,Calm,-,N/A,,Partly Cloudy,0,2013-01-07 09:53:00
3:58 AM,30.2,28.4,93,30.31,1.5,Calm,Calm,-,N/A,,Partly Cloudy,0,2013-01-07 09:58:00
4:03 AM,30.2,28.4,93,30.31,0.8,Calm,Calm,-,N/A,,Mist,0,2013-01-07 10:03:00
4:08 AM,30.2,28.4,93,30.31,1.0,Calm,Calm,-,N/A,,Clear,0,2013-01-07 10:08:00
4:33 AM,30.2,28.4,93,30.31,1.0,Calm,Calm,-,N/A,,Mist,0,2013-01-07 10:33:00
4:45 AM,30.2,28.4,93,30.31,2.0,Calm,Calm,-,N/A,,Scattered Clouds,0,2013-01-07 10:45:00
4:53 AM,30.0,28.0,92,30.31,6.0,Calm,Calm,-,N/A,,Scattered Clouds,0,2013-01-07 10:53:00
5:53 AM,28.9,27.0,92,30.32,6.0,Calm,Calm,-,N/A,,Clear,0,2013-01-07 11:53:00
6:53 AM,28.9,27.0,92,30.32,8.0,Calm,Calm,-,N/A,,Clear,0,2013-01-07 12:53:00
7:53 AM,30.9,30.0,96,30.34,6.0,Calm,Calm,-,N/A,,Clear,0,2013-01-07 13:53:00
8:53 AM,39.2,37.4,93,30.35,10.0,ENE,4.6,-,N/A,,Clear,60,2013-01-07 14:53:00
9:53 AM,46.9,39.0,74,30.36,10.0,Variable,4.6,-,N/A,,Clear,0,2013-01-07 15:53:00
10:53 AM,51.1,37.9,61,30.35,10.0,East,5.8,-,N/A,,Clear,100,2013-01-07 16:53:00
11:53 AM,54.0,37.9,55,30.30,10.0,Variable,4.6,-,N/A,,Clear,0,2013-01-07 17:53:00
12:53 PM,55.4,37.4,51,30.26,10.0,Variable,4.6,-,N/A,,Clear,0,2013-01-07 18:53:00
1:53 PM,55.9,36.0,47,30.24,10.0,NNE,4.6,-,N/A,,Clear,30,2013-01-07 19:53:00
2:53 PM,57.0,34.0,42,30.24,10.0,ENE,3.5,-,N/A,,Clear,60,2013-01-07 20:53:00
3:53 PM,55.9,36.0,47,30.22,10.0,Variable,3.5,-,N/A,,Clear,0,2013-01-07 21:53:00
4:53 PM,51.8,37.4,58,30.22,10.0,Calm,Calm,-,N/A,,Clear,0,2013-01-07 22:53:00
5:53 PM,46.9,39.9,77,30.21,10.0,Calm,Calm,-,N/A,,Clear,0,2013-01-07 23:53:00
6:53 PM,44.1,39.9,85,30.21,10.0,Calm,Calm,-,N/A,,Clear,0,2013-01-08 00:53:00
7:53 PM,41.0,37.9,89,30.20,10.0,Calm,Calm,-,N/A,,Clear,0,2013-01-08 01:53:00
8:53 PM,42.1,39.9,92,30.20,10.0,Calm,Calm,-,N/A,,Overcast,0,2013-01-08 02:53:00
9:53 PM,45.0,41.0,86,30.21,10.0,Calm,Calm,-,N/A,,Overcast,0,2013-01-08 03:53:00
10:53 PM,43.0,39.9,89,30.18,10.0,Calm,Calm,-,N/A,,Mostly Cloudy,0,2013-01-08 04:53:00
11:53 PM,43.0,39.0,86,30.18,10.0,Calm,Calm,-,N/A,,Clear,0,2013-01-08 05:53:00